Location: Mound City (historical)
(34.0564°N, 117.2656°W)
Time: 03:12:07
(UTC+00:00)

Lacrosse 5 rocket - Pass Details

Date: 08 September 2024
Orbit: 431 x 565 km, 57.0° (Epoch: 03 October)

Event Time Altitude Azimuth Distance (km) Brightness Sun altitude
Exits shadow 12:19:08 - 186° (S) 2,037 4.0 -14.7°
Reaches altitude 10° 12:20:27 10° 176° (S) 1,564 3.5 -14.5°
Maximum altitude 12:23:16 23° 123° (ESE) 986 3.1 -13.9°
Drops below altitude 10° 12:26:01 10° 69° (ENE) 1,538 5.1 -13.4°
Sets 12:28:23 0° 54° (NE) 2,402 6.0 -12.9°
